TimeCDT,TemperatureF,Dew PointF,Humidity,Sea Level PressureIn,VisibilityMPH,Wind Direction,Wind SpeedMPH,Gust SpeedMPH,PrecipitationIn,Events,Conditions,WindDirDegrees,DateUTC
12:15 AM,58.5,42.8,56,30.09,10.0,SE,10.4,-,N/A,,Clear,130,2013-03-28 05:15:00
12:35 AM,58.5,43.2,57,30.09,10.0,SE,9.2,-,N/A,,Clear,140,2013-03-28 05:35:00
12:55 AM,58.1,43.5,58,30.09,10.0,SSE,9.2,-,N/A,,Clear,150,2013-03-28 05:55:00
1:15 AM,57.6,43.7,60,30.09,10.0,SE,8.1,-,N/A,,Clear,140,2013-03-28 06:15:00
1:35 AM,57.4,43.7,60,30.09,10.0,SE,6.9,-,N/A,,Clear,130,2013-03-28 06:35:00
1:55 AM,56.5,43.9,63,30.09,10.0,SE,8.1,-,N/A,,Clear,140,2013-03-28 06:55:00
2:35 AM,55.4,44.1,66,30.10,10.0,SE,8.1,-,N/A,,Clear,140,2013-03-28 07:35:00
2:55 AM,54.7,44.1,67,30.10,10.0,SE,5.8,-,N/A,,Clear,130,2013-03-28 07:55:00
3:15 AM,53.8,43.9,69,30.10,10.0,SE,5.8,-,N/A,,Clear,130,2013-03-28 08:15:00
3:35 AM,52.7,43.7,71,30.09,10.0,SE,5.8,-,N/A,,Clear,130,2013-03-28 08:35:00
3:55 AM,52.9,43.9,71,30.08,10.0,SE,5.8,-,N/A,,Clear,130,2013-03-28 08:55:00
4:15 AM,52.9,44.1,72,30.08,10.0,SE,8.1,-,N/A,,Clear,140,2013-03-28 09:15:00
4:35 AM,52.7,44.1,72,30.08,10.0,SE,6.9,-,N/A,,Clear,140,2013-03-28 09:35:00
4:55 AM,52.3,44.1,73,30.08,10.0,SSE,8.1,-,N/A,,Clear,150,2013-03-28 09:55:00
5:15 AM,52.7,44.2,73,30.08,10.0,SE,8.1,-,N/A,,Clear,140,2013-03-28 10:15:00
5:35 AM,52.2,44.6,75,30.08,10.0,SE,6.9,-,N/A,,Clear,140,2013-03-28 10:35:00
5:55 AM,51.8,44.4,76,30.08,10.0,SE,6.9,-,N/A,,Clear,130,2013-03-28 10:55:00
6:15 AM,51.3,44.6,78,30.08,10.0,SE,5.8,-,N/A,,Clear,130,2013-03-28 11:15:00
6:35 AM,51.4,44.8,78,30.09,10.0,SE,6.9,-,N/A,,Clear,130,2013-03-28 11:35:00
6:55 AM,50.7,44.6,80,30.10,10.0,ESE,5.8,-,N/A,,Clear,120,2013-03-28 11:55:00
7:15 AM,49.5,44.2,82,30.11,10.0,SE,5.8,-,N/A,,Clear,140,2013-03-28 12:15:00
7:35 AM,49.6,44.6,83,30.12,10.0,SE,4.6,-,N/A,,Clear,140,2013-03-28 12:35:00
7:55 AM,50.0,44.8,82,30.12,10.0,SE,6.9,-,N/A,,Clear,140,2013-03-28 12:55:00
8:15 AM,51.3,45.5,81,30.13,10.0,SE,8.1,-,N/A,,Clear,130,2013-03-28 13:15:00
8:35 AM,53.1,45.9,77,30.13,10.0,SE,9.2,-,N/A,,Clear,130,2013-03-28 13:35:00
8:55 AM,54.3,46.4,75,30.14,10.0,SE,8.1,-,N/A,,Clear,140,2013-03-28 13:55:00
9:15 AM,55.6,46.8,72,30.15,10.0,SSE,8.1,-,N/A,,Clear,150,2013-03-28 14:15:00
9:35 AM,57.2,47.3,69,30.16,10.0,SSE,9.2,-,N/A,,Clear,150,2013-03-28 14:35:00
9:55 AM,58.6,48.0,68,30.15,10.0,SSE,10.4,17.3,N/A,,Clear,160,2013-03-28 14:55:00
10:15 AM,60.6,48.6,64,30.15,10.0,SSE,12.7,17.3,N/A,,Clear,150,2013-03-28 15:15:00
10:35 AM,60.8,48.7,64,30.15,10.0,SSE,11.5,18.4,N/A,,Clear,150,2013-03-28 15:35:00
10:55 AM,61.9,49.3,63,30.16,10.0,SSE,11.5,-,N/A,,Scattered Clouds,160,2013-03-28 15:55:00
11:15 AM,62.8,49.6,62,30.16,10.0,SSE,9.2,17.3,N/A,,Mostly Cloudy,150,2013-03-28 16:15:00
11:35 AM,63.1,50.0,62,30.16,10.0,South,11.5,17.3,N/A,,Overcast,170,2013-03-28 16:35:00
11:55 AM,65.7,50.5,58,30.14,10.0,South,11.5,-,N/A,,Mostly Cloudy,170,2013-03-28 16:55:00
12:15 PM,66.7,50.5,56,30.14,10.0,South,13.8,18.4,N/A,,Mostly Cloudy,170,2013-03-28 17:15:00
12:35 PM,67.5,50.5,55,30.13,10.0,South,13.8,17.3,N/A,,Mostly Cloudy,170,2013-03-28 17:35:00
12:55 PM,69.8,50.9,51,30.12,10.0,South,9.2,18.4,N/A,,Scattered Clouds,170,2013-03-28 17:55:00
1:15 PM,70.2,50.9,50,30.11,10.0,SSE,8.1,21.9,N/A,,Scattered Clouds,150,2013-03-28 18:15:00
1:35 PM,71.1,50.9,49,30.10,10.0,South,10.4,18.4,N/A,,Scattered Clouds,170,2013-03-28 18:35:00
1:55 PM,71.8,50.9,48,30.10,10.0,South,12.7,18.4,N/A,,Scattered Clouds,180,2013-03-28 18:55:00
2:15 PM,72.1,51.1,47,30.08,10.0,SE,13.8,20.7,N/A,,Scattered Clouds,130,2013-03-28 19:15:00
2:35 PM,72.0,51.3,48,30.07,10.0,SE,13.8,20.7,N/A,,Scattered Clouds,140,2013-03-28 19:35:00
2:55 PM,72.9,51.1,46,30.06,10.0,SSE,11.5,21.9,N/A,,Scattered Clouds,150,2013-03-28 19:55:00
3:15 PM,73.9,50.9,44,30.05,10.0,SSE,15.0,19.6,N/A,,Scattered Clouds,150,2013-03-28 20:15:00
3:35 PM,73.9,50.9,44,30.04,10.0,SE,16.1,21.9,N/A,,Scattered Clouds,140,2013-03-28 20:35:00
3:55 PM,73.4,50.9,45,30.04,10.0,SE,13.8,23.0,N/A,,Scattered Clouds,140,2013-03-28 20:55:00
4:15 PM,73.6,50.9,45,30.03,10.0,SSE,16.1,25.3,N/A,,Scattered Clouds,150,2013-03-28 21:15:00
4:35 PM,73.8,50.7,44,30.02,10.0,SSE,15.0,23.0,N/A,,Scattered Clouds,150,2013-03-28 21:35:00
4:55 PM,75.0,50.7,42,30.02,10.0,South,16.1,25.3,N/A,,Scattered Clouds,170,2013-03-28 21:55:00
5:15 PM,73.9,51.4,45,30.02,10.0,SSE,17.3,23.0,N/A,,Scattered Clouds,150,2013-03-28 22:15:00
5:35 PM,74.7,51.4,44,30.01,10.0,SSE,15.0,24.2,N/A,,Scattered Clouds,150,2013-03-28 22:35:00
5:55 PM,74.3,51.6,45,30.01,10.0,South,13.8,24.2,N/A,,Scattered Clouds,170,2013-03-28 22:55:00
6:15 PM,74.3,51.8,45,30.01,10.0,SSE,13.8,21.9,N/A,,Scattered Clouds,150,2013-03-28 23:15:00
6:35 PM,74.3,52.0,46,30.01,10.0,SSE,11.5,20.7,N/A,,Clear,150,2013-03-28 23:35:00
6:55 PM,73.2,52.2,48,30.01,10.0,SSE,16.1,23.0,N/A,,Clear,150,2013-03-28 23:55:00
7:15 PM,73.0,51.8,47,30.01,10.0,SSE,13.8,17.3,N/A,,Clear,160,2013-03-29 00:15:00
7:35 PM,72.0,52.2,50,30.02,10.0,SSE,10.4,19.6,N/A,,Clear,160,2013-03-29 00:35:00
7:55 PM,70.7,52.3,52,30.02,10.0,SSE,9.2,18.4,N/A,,Clear,150,2013-03-29 00:55:00
8:15 PM,69.8,52.7,54,30.03,10.0,SSE,8.1,-,N/A,,Clear,150,2013-03-29 01:15:00
8:35 PM,68.9,52.7,56,30.03,10.0,SE,8.1,-,N/A,,Clear,140,2013-03-29 01:35:00
8:55 PM,68.4,52.7,57,30.03,10.0,SE,10.4,-,N/A,,Clear,140,2013-03-29 01:55:00
9:15 PM,68.0,52.9,58,30.04,10.0,SE,9.2,-,N/A,,Clear,140,2013-03-29 02:15:00
9:35 PM,67.6,52.9,59,30.04,10.0,SSE,9.2,-,N/A,,Clear,150,2013-03-29 02:35:00
9:55 PM,67.1,53.1,61,30.05,10.0,SSE,10.4,-,N/A,,Clear,150,2013-03-29 02:55:00
10:15 PM,66.9,53.2,61,30.05,10.0,SSE,11.5,-,N/A,,Clear,150,2013-03-29 03:15:00
10:35 PM,66.2,53.6,64,30.06,10.0,SSE,10.4,16.1,N/A,,Clear,150,2013-03-29 03:35:00
10:55 PM,65.8,53.6,65,30.06,10.0,SSE,10.4,16.1,N/A,,Clear,150,2013-03-29 03:55:00
11:15 PM,65.5,53.8,66,30.07,10.0,SSE,8.1,-,N/A,,Clear,150,2013-03-29 04:15:00
11:35 PM,65.3,54.1,67,30.07,10.0,SSE,9.2,-,N/A,,Clear,150,2013-03-29 04:35:00
11:55 PM,65.3,54.7,68,30.07,10.0,SSE,9.2,17.3,N/A,,Clear,160,2013-03-29 04:55:00